K4AXV-13 Weather Reports


time (UTC)temp
C
wind
direction
speed
KPH
gust
KPH
rain 1hr
cm
rain 24hr
cm
rain mn
cm
humidity
%
barometer
mb
20260904052615 25 103 0.0 0.0 0.00 0.00 0.00
20260904052113 25 103 0.0 0.0 0.00 0.00 0.00
20260904051613 25 103 0.0 0.0 0.00 0.00 0.00
20260904051110 26 103 0.0 0.0 0.00 0.00 0.00
20260904050611 25 103 0.0 0.0 0.00 0.00 0.00
20260904050109 25 103 0.0 0.0 0.00 0.00 0.00
20260904045610 25 103 0.0 0.0 0.00 0.00 0.00
20260904045106 25 103 0.0 0.0 0.00 0.00 0.00
20260904044607 25 103 0.0 0.0 0.00 0.00 0.00
20260904044103 25 103 0.0 0.0 0.00 0.00 0.00
20260904043604 25 103 0.0 0.0 0.00 0.00 0.00
20260904043102 25 103 0.0 0.0 0.00 0.00 0.00
20260904042602 26 103 0.0 0.0 0.00 0.00 0.00
20260904042101 26 103 0.0 0.0 0.00 0.00 0.00
20260904041601 25 103 0.0 0.0 0.00 0.00 0.00
20260904041059 26 103 0.0 0.0 0.00 0.00 0.00
20260904040600 26 103 0.0 0.0 0.00 0.00 0.00
20260904040058 26 103 0.0 0.0 0.00 0.00 0.00
20260904035559 26 103 0.0 0.0 0.00 0.00 0.00
20260904035057 26 103 0.0 0.0 0.00 0.00 0.00
20260904034557 26 103 0.0 0.0 0.00 0.00 0.00
20260904033556 26 103 0.0 0.0 0.00 0.00 0.00
20260904032051 26 103 0.0 0.0 0.00 0.00 0.00
20260904031552 26 103 0.0 0.0 0.00 0.00 0.00
20260904031049 26 103 0.0 0.0 0.00 0.00 0.00
20260904030550 26 103 0.0 0.0 0.00 0.00 0.00
20260904030048 26 103 0.0 0.0 0.00 0.00 0.00
20260904025045 26 103 0.0 0.0 0.00 0.00 0.00
20260904024546 26 103 0.0 0.0 0.00 0.00 0.00
20260904024044 26 103 0.0 0.0 0.00 0.00 0.00
20260904023545 26 103 0.0 0.0 0.00 0.00 0.00
20260904023042 26 103 0.0 0.0 0.00 0.00 0.00
20260904022543 26 103 0.0 0.0 0.00 0.00 0.00
20260904022041 26 103 0.0 0.0 0.00 0.00 0.00
20260904021539 26 103 0.0 0.0 0.00 0.00 0.00
20260904021038 26 103 0.0 0.0 0.00 0.00 0.00
20260904020539 26 103 0.0 0.0 0.00 0.00 0.00
20260904020035 26 103 0.0 0.0 0.00 0.00 0.00
20260904015535 26 103 0.0 0.0 0.00 0.00 0.00
20260904015034 26 103 0.0 0.0 0.00 0.00 0.00
20260904014534 26 103 0.0 0.0 0.00 0.00 0.00
20260904013529 26 103 0.0 0.0 0.00 0.00 0.00
20260904013027 27 103 0.0 0.0 0.00 0.00 0.00
20260904012024 26 103 0.0 0.0 0.00 0.00 0.00
20260904011021 26 103 0.0 0.0 0.00 0.00 0.00
20260904010522 27 103 0.0 0.0 0.00 0.00 0.00
20260904010019 27 103 0.0 0.0 0.00 0.00 0.00
20260904005519 27 103 0.0 0.0 0.00 0.00 0.00
20260904005016 26 103 0.0 0.0 0.00 0.00 0.00
20260904004517 27 103 0.0 0.0 0.00 0.00 0.00
20260904004015 27 103 0.0 0.0 0.00 0.00 0.00
20260904003516 27 103 0.0 0.0 0.00 0.00 0.00
20260904003013 27 103 0.0 0.0 0.00 0.00 0.00
20260904002514 27 103 0.0 0.0 0.00 0.00 0.00
20260904002013 28 103 0.0 0.0 0.00 0.00 0.00
20260904001513 27 103 0.0 0.0 0.00 0.00 0.00
20260904001011 27 103 0.0 0.0 0.00 0.00 0.00
20260904000512 28 103 0.0 0.0 0.00 0.00 0.00
20260904000010 28 103 0.0 0.0 0.00 0.00 0.00
20260903235007 28 152 1.6 3.2 0.00 0.00 0.00
20260903234508 28 103 1.6 1.6 0.00 0.00 0.00
20260903234006 28 146 3.2 3.2 0.00 0.00 0.00
20260903233507 28 129 3.2 3.2 0.00 0.00 0.00
20260903233006 28 124 4.8 3.2 0.00 0.00 0.00
20260903232506 28 159 3.2 3.2 0.00 0.00 0.00
20260903232004 28 111 3.2 1.6 0.00 0.00 0.00
20260903231504 29 132 4.8 6.4 0.00 0.00 0.00
20260903230503 29 138 4.8 4.8 0.00 0.00 0.00
20260903225502 29 132 9.7 11.3 0.00 0.00 0.00
20260903225001 29 150 6.4 8.0 0.00 0.00 0.00
20260903224000 29 38 4.8 4.8 0.00 0.00 0.00
20260903223501 29 139 1.6 6.4 0.00 0.00 0.00
20260903222959 29 131 6.4 4.8 0.00 0.00 0.00
20260903222500 30 122 8.0 8.0 0.00 0.00 0.00
20260903221958 29 127 9.7 8.0 0.00 0.00 0.00
20260903221459 29 149 8.0 8.0 0.00 0.00 0.00
20260903220957 29 150 8.0 9.7 0.00 0.00 0.00
20260903220458 29 158 8.0 12.9 0.00 0.00 0.00
20260903215956 29 118 8.0 8.0 0.00 0.00 0.00
20260903215457 29 98 11.3 11.3 0.00 0.00 0.00
20260903214456 30 131 9.7 8.0 0.00 0.00 0.00
20260903213455 30 141 11.3 8.0 0.00 0.00 0.00
20260903212953 30 146 1.6 8.0 0.00 0.00 0.00
20260903212454 30 120 11.3 11.3 0.00 0.00 0.00
20260903211952 30 79 4.8 3.2 0.00 0.00 0.00
20260903211453 30 158 6.4 6.4 0.00 0.00 0.00
20260903210949 31 124 8.0 11.3 0.00 0.00 0.00
20260903205946 30 104 3.2 6.4 0.00 0.00 0.00
20260903204943 30 125 14.5 14.5 0.00 0.00 0.00
20260903204444 31 132 6.4 11.3 0.00 0.00 0.00
20260903203942 30 83 9.7 3.2 0.00 0.00 0.00
20260903203443 30 118 8.0 4.8 0.00 0.00 0.00
20260903202941 30 120 9.7 11.3 0.00 0.00 0.00
20260903202442 30 134 9.7 12.9 0.00 0.00 0.00
20260903201940 30 114 8.0 8.0 0.00 0.00 0.00
20260903200937 31 124 9.7 14.5 0.00 0.00 0.00
20260903200438 31 104 6.4 3.2 0.00 0.00 0.00
20260903195437 31 121 12.9 14.5 0.00 0.00 0.00
20260903194935 31 122 14.5 9.7 0.00 0.00 0.00
20260903194436 31 159 11.3 6.4 0.00 0.00 0.00
20260903193434 31 39 1.6 0.0 0.00 0.00 0.00
20260903192932 31 111 9.7 6.4 0.00 0.00 0.00
20260903191931 31 94 14.5 9.7 0.00 0.00 0.00
20260903191432 31 128 6.4 6.4 0.00 0.00 0.00
20260903190930 31 104 11.3 3.2 0.00 0.00 0.00
20260903190431 31 143 11.3 8.0 0.00 0.00 0.00
20260903185929 31 93 6.4 16.1 0.00 0.00 0.00
20260903185430 31 115 6.4 8.0 0.00 0.00 0.00
20260903184927 31 100 12.9 8.0 0.00 0.00 0.00
20260903183927 31 143 6.4 6.4 0.00 0.00 0.00
20260903182926 31 129 11.3 12.9 0.00 0.00 0.00
20260903182426 31 141 9.7 8.0 0.00 0.00 0.00
20260903181924 31 138 9.7 6.4 0.00 0.00 0.00
20260903181424 31 121 11.3 12.9 0.00 0.00 0.00
20260903180920 31 115 11.3 14.5 0.00 0.00 0.00
20260903180420 31 143 11.3 14.5 0.00 0.00 0.00
20260903175920 31 46 1.6 0.0 0.00 0.00 0.00
20260903175420 31 128 11.3 9.7 0.00 0.00 0.00
20260903174916 31 139 11.3 9.7 0.00 0.00 0.00
20260903174417 30 142 8.0 8.0 0.00 0.00 0.00
20260903173915 31 148 11.3 12.9 0.00 0.00 0.00
20260903173417 31 146 11.3 11.3 0.00 0.00 0.00
20260903172914 31 135 11.3 11.3 0.00 0.00 0.00
20260903172415 31 165 8.0 11.3 0.00 0.00 0.00
20260903171911 31 148 11.3 11.3 0.00 0.00 0.00
20260903171410 31 148 16.1 11.3 0.00 0.00 0.00
20260903170906 31 141 12.9 11.3 0.00 0.00 0.00
20260903170407 31 149 11.3 14.5 0.00 0.00 0.00
20260903165904 31 82 8.0 9.7 0.00 0.00 0.00
20260903165405 30 107 12.9 12.9 0.00 0.00 0.00
20260903164405 31 96 6.4 4.8 0.00 0.00 0.00
20260903163902 31 131 6.4 11.3 0.00 0.00 0.00
20260903162357 31 110 8.0 6.4 0.00 0.00 0.00
20260903161855 31 136 6.4 11.3 0.00 0.00 0.00
20260903161357 31 121 6.4 9.7 0.00 0.00 0.00
20260903160852 31 160 1.6 4.8 0.00 0.00 0.00
20260903155850 31 134 6.4 8.0 0.00 0.00 0.00
20260903155351 31 152 6.4 6.4 0.00 0.00 0.00
20260903154848 31 152 1.6 3.2 0.00 0.00 0.00
20260903154349 31 153 9.7 4.8 0.00 0.00 0.00
20260903153845 31 139 6.4 9.7 0.00 0.00 0.00
20260903153346 31 100 3.2 4.8 0.00 0.00 0.00
20260903152844 30 131 3.2 0.0 0.00 0.00 0.00
20260903152345 30 104 4.8 4.8 0.00 0.00 0.00
20260903151843 31 129 4.8 8.0 0.00 0.00 0.00
20260903151344 31 138 6.4 8.0 0.00 0.00 0.00
20260903150842 30 134 12.9 9.7 0.00 0.00 0.00
20260903150346 30 143 4.8 4.8 0.00 0.00 0.00
20260903145841 30 73 1.6 1.6 0.00 0.00 0.00
20260903145557 28 52 0.0 0.0 0.00 0.00 0.00
20260903145555 28 52 0.0 0.0 0.00 0.00 0.00
20260903145441 28 52 0.0 0.0 0.00 0.00 0.00
20260903145439 28 52 0.0 0.0 0.00 0.00 0.00
20260903144837 30 89 6.4 3.2 0.00 0.00 0.00
20260903144337 30 82 0.0 1.6 0.00 0.00 0.00
20260903143832 30 156 3.2 4.8 0.00 0.00 0.00
20260903143333 30 63 3.2 4.8 0.00 0.00 0.00
20260903142831 29 115 3.2 1.6 0.00 0.00 0.00
20260903141829 29 89 1.6 3.2 0.00 0.00 0.00
20260903140826 28 105 1.6 1.6 0.00 0.00 0.00
20260903140326 28 56 0.0 0.0 0.00 0.00 0.00
20260903135821 28 60 1.6 1.6 0.00 0.00 0.00
20260903134820 28 52 0.0 0.0 0.00 0.00 0.00
20260903134409 28 52 0.0 0.0 0.00 0.00 0.00
20260903134321 28 52 0.0 0.0 0.00 0.00 0.00
20260903130626 27 70 3.2 3.2 0.00 0.00 0.00
20260903130552 27 70 3.2 3.2 0.00 0.00 0.00
20260903130514 27 70 3.2 3.2 0.00 0.00 0.00
20260903130315 27 70 3.2 3.2 0.00 0.00 0.00
20260903125933 27 69 1.6 3.2 0.00 0.00 0.00
20260903125809 27 69 1.6 3.2 0.00 0.00 0.00
20260903124712 25 46 0.0 0.0 0.00 0.00 0.00
20260903124617 25 46 0.0 0.0 0.00 0.00 0.00
20260903124545 25 46 0.0 0.0 0.00 0.00 0.00
20260903124309 26 51 0.0 0.0 0.00 0.00 0.00
20260903124011 26 46 0.0 0.0 0.00 0.00 0.00
20260903123945 26 46 0.0 0.0 0.00 0.00 0.00
20260903123932 26 46 0.0 0.0 0.00 0.00 0.00
20260903123851 26 46 0.0 0.0 0.00 0.00 0.00
20260903123808 26 46 0.0 0.0 0.00 0.00 0.00
20260903123308 26 46 0.0 0.0 0.00 0.00 0.00
20260903123044 26 46 0.0 0.0 0.00 0.00 0.00
20260903123012 26 46 0.0 0.0 0.00 0.00 0.00
20260903122803 26 46 0.0 0.0 0.00 0.00 0.00
20260903121303 25 46 0.0 0.0 0.00 0.00 0.00
20260903121011 25 46 0.0 0.0 0.00 0.00 0.00
20260903120759 25 46 0.0 0.0 0.00 0.00 0.00
20260903120527 24 46 0.0 0.0 0.00 0.00 0.00
20260903120247 24 46 0.0 0.0 0.00 0.00 0.00
20260903114748 25 46 0.0 0.0 0.00 0.00 0.00
20260903113825 24 46 0.0 0.0 0.00 0.00 0.00
20260903113743 24 46 0.0 0.0 0.00 0.00 0.00
20260903113319 24 46 0.0 0.0 0.00 0.00 0.00
20260903113244 24 46 0.0 0.0 0.00 0.00 0.00
20260903113148 24 46 0.0 0.0 0.00 0.00 0.00
20260903113111 24 46 0.0 0.0 0.00 0.00 0.00
20260903112741 24 46 0.0 0.0 0.00 0.00 0.00
20260903112258 23 46 0.0 0.0 0.00 0.00 0.00
20260903111832 23 46 0.0 0.0 0.00 0.00 0.00
20260903111741 23 46 0.0 0.0 0.00 0.00 0.00
20260903111317 24 46 0.0 0.0 0.00 0.00 0.00
20260903111242 24 46 0.0 0.0 0.00 0.00 0.00
20260903093212 24 46 0.0 0.0 0.00 0.00 0.00
20260903092250 24 46 0.0 0.0 0.00 0.00 0.00
20260903092212 24 46 0.0 0.0 0.00 0.00 0.00
20260903084154 24 46 0.0 0.0 0.00 0.00 0.00
20260903083732 24 46 0.0 0.0 0.00 0.00 0.00
20260903083647 24 46 0.0 0.0 0.00 0.00 0.00
20260903080643 24 46 0.0 0.0 0.00 0.00 0.00
20260903080136 24 46 0.0 0.0 0.00 0.00 0.00
20260903075259 24 46 0.0 0.0 0.00 0.00 0.00
20260903075228 24 46 0.0 0.0 0.00 0.00 0.00
20260903075219 24 46 0.0 0.0 0.00 0.00 0.00
20260903075136 24 46 0.0 0.0 0.00 0.00 0.00
20260903075112 24 46 0.0 0.0 0.00 0.00 0.00
20260903075040 24 46 0.0 0.0 0.00 0.00 0.00
20260903074631 24 46 0.0 0.0 0.00 0.00 0.00
20260903071618 24 46 0.0 0.0 0.00 0.00 0.00
20260903070806 24 46 0.0 0.0 0.00 0.00 0.00
20260903070613 24 46 0.0 0.0 0.00 0.00 0.00
20260903065119 24 46 0.0 0.0 0.00 0.00 0.00
20260903064651 25 46 0.0 0.0 0.00 0.00 0.00
20260903064608 25 46 0.0 0.0 0.00 0.00 0.00
20260903064140 24 46 0.0 0.0 0.00 0.00 0.00
20260903064108 24 46 0.0 0.0 0.00 0.00 0.00